Location: ASU Dark Sky Observatory
(36.2504°N, 81.4125°W)
Time: 21:39:50
(UTC-04:00)

Daily predictions for brighter satellites

Satellite Brightness Start Highest point End
(mag) Time Altitude Azimuth Time Altitude Azimuth Time Altitude Azimuth
Cosmos 1655 Rocket 4.0 21:06:02 10° N 21:12:19 80° E 21:18:31 10° S
Cosmos 1733 3.3 21:13:31 10° N 21:17:18 79° W 21:21:04 10° S
YAOGAN 6 3.0 21:14:40 10° S 21:18:11 64° W 21:21:41 10° NNW
Cosmos 2263 Rocket 2.7 21:12:43 10° SSW 21:18:21 68° WNW 21:24:01 10° NNE
Cosmos 158 Rocket 4.0 21:13:31 10° SSW 21:18:50 78° ESE 21:24:05 10° NNE
Spot 2 Rocket 3.8 21:18:05 10° SSE 21:22:57 52° ENE 21:27:51 10° N
Cosmos 2266 Rocket 4.3 21:17:39 10° N 21:23:51 50° E 21:29:56 10° SSE
Cosmos 1452 Rocket 3.9 21:18:48 10° N 21:23:56 49° ENE 21:29:01 10° SE
Cosmos 1939 Rocket 3.3 21:21:53 10° S 21:25:58 66° W 21:29:59 10° NNW
Cosmos 2056 Rocket 4.2 21:23:22 10° NNW 21:28:23 53° WSW 21:33:28 10° S
GENESIS II 4.4 21:26:16 10° S 21:30:00 48° ESE 21:33:46 10° NE
Meteor 1-16 Rocket 4.5 21:29:05 10° N 21:34:31 52° ENE 21:40:05 10° SSE
Cosmos 972 4.5 21:33:02 10° SSW 21:38:02 83° WNW 21:42:56 10° NNE
Cosmos 1707 3.5 21:38:10 10° SSW 21:41:57 54° W 21:45:45 10° N
Cosmos 1607 4.1 21:37:35 10° NNW 21:43:57 79° WSW 21:50:02 11° SSE
H-2A R/B 3.0 21:40:36 12° SE 21:44:48 34° ENE 21:49:37 10° N
Cosmos 1315 Rocket 2.8 21:47:16 10° S 21:51:14 63° E 21:55:17 10° NNE
ATLAS 3B R/B 4.3 21:46:52 10° N 21:51:37 20° NE 21:56:18 10° E
Cosmos 1674 4.1 21:50:52 17° ESE 21:52:24 22° E 21:55:21 10° NE
Cosmos-2242 4.1 21:48:53 10° NNE 21:52:42 28° ENE 21:55:07 18° SE
Cosmos 1269 Rocket 4.1 21:48:02 10° S 21:53:13 58° ESE 21:58:25 10° NNE
OAO 3 Copernicus 4.3 21:48:34 10° W 21:53:36 68° S 21:57:40 16° ESE
Cosmos 1953 4.1 21:51:39 10° NNW 21:55:12 32° W 21:58:46 10° SSW
Hubble Space Telescope 3.1 22:00:36 10° SSW 22:01:07 10° SSW 22:01:37 10° SSW
H-II Stage 2 3.9 22:00:10 10° SSW 22:01:32 11° S 22:01:49 11° S
BREEZE-M R/B 3.3 22:00:46 10° WNW 22:03:28 28° SW 22:04:34 20° S
Cosmos 1943 4.4 22:04:05 10° NW 22:09:14 37° WSW 22:14:21 10° S
Cosmos 2278 Rocket 3.5 22:08:19 18° ESE 22:09:15 19° E 22:13:04 10° ENE
ERS-2 3.6 22:05:57 10° SSW 22:09:19 35° W 22:12:42 10° NNW
Cosmos 1932 4.4 22:04:10 10° NNW 22:10:25 88° WSW 22:14:53 20° SSE
Cosmos 1953 Rocket 3.5 22:06:25 10° S 22:10:45 86° E 22:15:09 10° N
SPOT 5 4.2 22:08:36 18° ESE 22:11:09 28° ENE 22:15:32 10° N
Cosmos 1726 3.7 22:11:58 10° NNE 22:14:50 20° ENE 22:15:28 20° E
ATLAS 2AS CENTAUR R/B 3.0 22:07:49 10° SSW 22:15:30 85° ESE 22:23:40 10° NNE
Cosmos 1238 Rocket 2.0 22:13:47 20° S 22:15:42 82° W 22:18:41 10° N
Cosmos 1758 Rocket 4.0 22:11:50 10° SSW 22:16:14 65° W 22:20:38 10° N
Timation 1 Rocket 4.3 22:10:59 10° S 22:16:52 66° ESE 22:22:47 10° NNE
Resurs 01 Rocket 3.5 22:13:37 10° SSW 22:17:20 27° W 22:21:05 10° NW
Lacrosse 5 2.9 22:12:53 10° WSW 22:17:46 48° NW 22:22:40 10° NNE
OAO 3 Rocket 3.1 22:13:08 10° W 22:18:05 78° S 22:21:44 18° E
ARGOS 3.1 22:13:57 17° SSE 22:18:09 88° ENE 22:23:37 10° NNW
SL-8 R/B 3.9 22:14:36 10° WSW 22:19:25 75° NW 22:24:16 10° NE
Helios 1B rocket 3.7 22:20:04 10° NE 22:23:15 22° E 22:23:15 22° E
COSMOS 2406 4.2 22:18:24 10° N 22:23:36 33° ENE 22:26:24 22° ESE
Cosmos 2251 Rocket 4.3 22:25:25 27° SE 22:26:57 32° E 22:31:37 10° NE
MetOp-A 4.2 22:24:48 19° S 22:28:41 77° WSW 22:34:03 10° NNW
Iridium 4 Rocket 4.4 22:23:18 10° SSW 22:28:53 54° W 22:34:08 10° N
ERS-1 Rocket 3.0 22:26:47 28° SSE 22:29:26 66° ENE 22:34:26 10° N
Cosmos 1844 3.6 22:25:06 10° SSW 22:30:45 77° ESE 22:36:31 10° NNE
Cosmos 1844 Rocket 2.8 22:25:16 10° SSW 22:30:56 80° WNW 22:36:37 10° NNE
Cosmos 1346 Rocket 2.7 22:27:09 10° N 22:31:11 80° E 22:32:47 35° SSE
USA 245 4.5 22:28:41 25° SSE 22:32:24 73° ENE 22:38:49 10° N
KORONAS-FOTON 3.9 22:33:26 40° SSE 22:34:32 58° E 22:38:24 10° NNE
SL-08 RB Rocket 3.9 22:35:38 26° S 22:38:16 71° WSW 22:42:57 10° NNW
Meteor 1-24 Rocket 4.3 22:33:45 10° SSW 22:39:41 62° W 22:45:40 10° N
Cosmos 2221 4.3 22:39:03 10° NNE 22:42:01 18° ENE 22:42:12 18° ENE
ATLAS 3B CENTAUR R/B 4.1 22:25:52 10° SW 22:42:41 37° S 22:46:48 27° SE
USA 215 4.1 22:40:27 20° S 22:44:24 40° SW 22:50:29 10° WNW
Cosmos 921 Rocket 3.0 22:43:25 10° NNW 22:47:55 81° ENE 22:49:14 46° SSE
Cosmos 1745 Rocket 4.2 22:44:24 10° N 22:50:35 55° E 22:53:00 35° SE
Meteor 1-29 4.5 22:48:17 10° NE 22:50:08 24° ENE 22:50:08 24° ENE
ATLAS 5 CENTAUR R/B 3.4 22:53:54 17° ENE 22:53:54 17° ENE 22:55:31 10° ENE
NOSS 3-4 (A) 3.6 22:50:38 32° SSE 22:53:02 47° ESE 22:59:02 10° NE
NOSS 3-4 (C) 3.6 22:50:51 32° SSE 22:53:08 46° ESE 22:59:07 10° NE
Landsat 7 4.0 22:54:52 44° SE 22:56:02 58° ENE 23:00:43 10° N
SL-08 R/B 4.4 22:50:53 10° N 22:57:03 80° E 22:59:48 36° SSE
Cosmos 724 4.3 22:51:48 10° NNW 22:57:52 88° ENE 23:00:16 40° SSE
Cosmos 2082 Rocket 4.3 22:56:01 10° NNE 22:59:08 15° NE 23:01:32 12° E
Cosmos 1437 4.4 22:57:27 10° NW 23:00:10 26° W 23:00:49 24° WSW
Cosmos 1908 3.6 22:58:15 10° NNW 23:02:03 59° W 23:02:49 48° SW
Meteor 2-13 Rocket 4.4 23:02:02 10° N 23:08:05 68° E 23:10:01 44° SSE
Cosmos 1461 3.0 23:08:01 62° SE 23:08:19 64° ESE 23:13:01 10° NE
CARTOSAT-1 3.6 23:10:01 58° E 23:10:20 60° ENE 23:14:36 10° N
Cosmos 1626 3.8 23:14:08 24° NE 23:14:08 24° NE 23:16:09 10° NNE
S3M 4.2 23:10:09 25° SSW 23:14:00 73° W 23:20:25 10° N
Spot 1 4.2 23:13:56 55° E 23:14:10 56° ENE 23:18:36 10° N
Cosmos 220 Rocket 4.2 23:13:14 44° SW 23:14:26 67° WNW 23:18:38 10° NNE
Terra 1.9 23:14:51 55° ESE 23:15:26 59° ENE 23:20:07 10° N
CZ-2C R/B 3.1 23:11:57 10° NNE 23:17:03 41° E 23:17:05 41° E
Cosmos 1340 2.8 23:14:24 10° NNW 23:18:05 68° W 23:18:05 68° W
IGS 5A 3.3 23:19:09 79° E 23:19:11 79° ENE 23:23:21 10° N
APEX 3.9 23:18:06 10° NNW 23:20:32 42° NNE 23:20:32 42° NNE
SPOT 1/Viking Rocket 3.8 23:22:20 43° SSW 23:23:44 59° W 23:28:49 10° NNW
Cosmos 1709 Rocket 4.3 23:18:05 10° N 23:24:05 49° E 23:25:14 44° ESE
H-2A R/B 3.8 23:21:14 16° SW 23:24:12 26° W 23:28:38 10° NW
YAOGAN 11 4.4 23:26:55 55° ENE 23:26:58 55° ENE 23:31:26 10° N
TELKOM 3 4.5 23:24:16 10° NW 23:29:58 80° WSW 23:29:58 80° WSW
Cosmos 1076 Rocket 4.0 23:32:55 49° NE 23:32:55 49° NE 23:36:19 10° NNE
Cosmos 1300 3.1 23:28:37 10° N 23:31:48 60° N 23:31:48 60° N
Cosmos 1375 Rocket 4.5 23:31:40 10° NNW 23:38:17 85° ENE 23:39:46 57° SE
Cosmos 1842 Rocket 4.3 23:36:32 10° NNW 23:40:40 44° W 23:40:56 43° WSW
USA 238 DEB 3.9 23:35:10 10° NW 23:42:15 64° WSW 23:44:13 47° S
USA 238 3.9 23:35:16 10° NW 23:42:21 65° WSW 23:44:19 48° S
ATLAS 3B R/B 2.5 23:36:26 10° NNW 23:43:03 82° WSW 23:44:26 58° SSE
NOSS 2-2 (C) 4.4 23:50:15 39° NNE 23:50:15 39° NNE 23:52:59 10° NNE
SPOT 5 4.3 23:47:50 28° WSW 23:49:02 31° W 23:53:37 10° NW
Cosmos 1726 4.3 23:47:12 10° NW 23:49:57 20° W 23:50:03 19° W
Mayak 1.2 23:48:58 10° NE 23:49:39 13° ENE 23:49:39 13° ENE
Cosmos 2278 Rocket 2.8 23:50:05 28° SW 23:52:50 52° WNW 23:58:23 10° NNE
Cosmos 2315 Rocket 3.9 23:52:00 58° SSW 23:53:21 86° W 23:59:44 10° N
